Date String (YYYY-MM-DD hh:mm:ss) UTC,Instrument flags,absolute air pressure of the measurement (hPa),sample flow rate (lpm),inlet stack bypass flow (lpm),air temperature of the measurement (°C),ambient temperature measured by the external sensor (°C),aerosol sample conditioner tube jacket temperature (°C),OPC LED temperature (°C),internal box temperature (°C),relative humidity of the measurement (%),span deviation,mass concentration of particles derived from Lorenz-Mie calculation of OPC scattering (μg/m³),mass concentration of particles derived from Lorenz-Mie calculation of OPC scattering (μg/m³),mass concentration of particles derived from Lorenz-Mie calculation of OPC scattering (μg/m³)
DateTimeUTC,F1_M11,P_M11,Q1_M11,Q2_M11,T1_M11,T2_M11,T3_M11,T4_M11,T5_M11,U1_M11,ZSPAN_M11,X2_M11,X0_M11,X1_M11
2024-05-08 03:00:00,SystemResetWarning,0819.0,5.00,000.00,022.6,021.9,000.0,030.8,024.3,011.8,0000.0,0001.39,0005.57,0000.69
2024-05-08 03:01:00,SystemResetWarning,0819.0,5.01,000.00,022.6,021.9,000.0,030.8,024.3,011.7,0000.0,0001.46,0004.44,0000.70
2024-05-08 03:02:00,SystemResetWarning,0819.0,5.01,000.00,022.6,021.9,000.0,030.8,024.3,012.1,0000.0,0001.44,0004.35,0000.69
2024-05-08 03:03:00,SystemResetWarning,0819.0,5.00,000.00,022.6,021.9,000.0,030.8,024.3,013.0,0000.0,0001.50,0004.94,0000.69
2024-05-08 03:04:00,SystemResetWarning,0819.1,4.99,000.00,022.6,021.9,000.0,030.8,024.3,013.5,0000.0,0001.44,0004.82,0000.68
2024-05-08 03:05:00,SystemResetWarning,0819.2,4.99,000.00,022.6,021.9,000.0,030.8,024.3,013.8,0000.0,0001.37,0004.72,0000.65
2024-05-08 03:06:00,SystemResetWarning,0819.0,5.01,000.00,022.6,021.9,000.0,030.8,024.3,014.6,0000.0,0001.31,0004.53,0000.63
2024-05-08 03:07:00,SystemResetWarning,0819.0,5.02,000.00,022.6,021.9,000.0,030.8,024.3,014.4,0000.0,0001.31,0003.90,0000.62
2024-05-08 03:08:00,SystemResetWarning,0819.0,4.99,000.00,022.6,022.0,000.0,030.8,024.3,013.5,0000.0,0001.32,0003.74,0000.61
2024-05-08 03:09:00,SystemResetWarning,0819.0,5.00,000.00,022.6,022.0,000.0,030.8,024.3,013.2,0000.0,0001.30,0003.72,0000.61
2024-05-08 03:10:00,SystemResetWarning,0819.1,5.01,000.00,022.6,022.0,000.0,030.8,024.3,012.7,0000.0,0001.30,0003.96,0000.60
2024-05-08 03:11:00,SystemResetWarning,0819.1,5.01,000.00,022.6,022.0,000.0,030.8,024.4,012.8,0000.0,0001.28,0004.88,0000.60
2024-05-08 03:12:00,SystemResetWarning,0819.0,5.00,000.00,022.7,022.0,000.0,030.8,024.4,012.6,0000.0,0001.23,0004.75,0000.59
2024-05-08 03:13:00,SystemResetWarning,0819.0,4.99,000.00,022.7,022.0,000.0,030.9,024.4,011.4,0000.0,0001.25,0004.46,0000.58
2024-05-08 03:14:00,SystemResetWarning,0819.0,4.99,000.00,022.7,022.0,000.0,030.9,024.4,011.1,0000.0,0001.22,0004.03,0000.60
2024-05-08 03:15:00,SystemResetWarning,0819.0,5.00,000.00,022.7,022.0,000.0,030.9,024.3,011.1,0000.0,0001.25,0004.05,0000.62
2024-05-08 03:16:00,SystemResetWarning,0819.1,4.99,000.00,022.7,022.0,000.0,030.9,024.4,011.1,0000.0,0001.34,0004.12,0000.66
2024-05-08 03:17:00,SystemResetWarning,0819.4,5.00,000.00,022.7,022.0,000.0,030.9,024.4,011.2,0000.0,0001.44,0004.33,0000.69
2024-05-08 03:18:00,SystemResetWarning,0819.0,5.00,000.00,022.7,022.0,000.0,030.9,024.4,011.1,0000.0,0001.47,0004.39,0000.73
2024-05-08 03:19:00,SystemResetWarning,0819.0,5.00,000.00,022.7,022.0,000.0,030.9,024.3,011.0,0000.0,0001.47,0004.27,0000.75
2024-05-08 03:20:00,SystemResetWarning,0818.8,5.01,000.00,022.7,022.0,000.0,030.9,024.3,010.9,0000.0,0001.54,0004.45,0000.77
2024-05-08 03:21:00,SystemResetWarning,0818.8,5.00,000.00,022.7,022.0,000.0,030.8,024.3,010.9,0000.0,0001.60,0004.39,0000.80
2024-05-08 03:22:00,SystemResetWarning,0818.8,4.99,000.00,022.6,021.9,000.0,030.9,024.3,010.9,0000.0,0001.60,0003.35,0000.82
2024-05-08 03:23:00,SystemResetWarning,0818.8,4.99,000.00,022.6,021.9,000.0,030.8,024.3,010.9,0000.0,0001.63,0003.52,0000.84
2024-05-08 03:24:00,SystemResetWarning,0819.0,4.99,000.00,022.6,021.9,000.0,030.8,024.3,010.8,0000.0,0001.66,0003.75,0000.86
2024-05-08 03:25:00,SystemResetWarning,0818.8,5.00,000.00,022.6,021.9,000.0,030.8,024.3,010.7,0000.0,0001.74,0004.44,0000.86
2024-05-08 03:26:00,SystemResetWarning,0818.8,4.99,000.00,022.6,021.8,000.0,030.8,024.3,010.5,0000.0,0001.79,0004.74,0000.87
2024-05-08 03:27:00,SystemResetWarning,0819.2,5.00,000.00,022.6,021.8,000.0,030.8,024.2,010.5,0000.0,0001.75,0004.72,0000.87
2024-05-08 03:28:00,SystemResetWarning,0819.0,5.01,000.00,022.6,021.8,000.0,030.8,024.2,010.8,0000.0,0001.69,0005.06,0000.85
2024-05-08 03:29:00,SystemResetWarning,0819.0,5.01,000.00,022.6,021.8,000.0,030.8,024.2,011.0,0000.0,0001.67,0004.89,0000.86
2024-05-08 03:30:00,SystemResetWarning,0819.0,5.01,000.00,022.6,021.8,000.0,030.8,024.2,011.1,0000.0,0001.72,0005.01,0000.88
2024-05-08 03:31:00,SystemResetWarning,0818.9,4.98,000.00,022.6,021.8,000.0,030.8,024.2,011.2,0000.0,0001.71,0005.03,0000.87
2024-05-08 03:32:00,SystemResetWarning,0819.1,5.00,000.00,022.6,021.8,000.0,030.8,024.2,011.3,0000.0,0001.73,0007.06,0000.87
2024-05-08 03:33:00,SystemResetWarning,0819.3,5.01,000.00,022.6,021.8,000.0,030.8,024.2,011.3,0000.0,0001.79,0007.36,0000.87
2024-05-08 03:34:00,SystemResetWarning,0819.1,5.01,000.00,022.6,021.8,000.0,030.8,024.2,011.2,0000.0,0001.86,0007.45,0000.88
2024-05-08 03:35:00,SystemResetWarning,0819.0,5.01,000.00,022.6,021.8,000.0,030.8,024.2,011.3,0000.0,0001.88,0008.11,0000.88
2024-05-08 03:36:00,SystemResetWarning,0819.0,5.00,000.00,022.6,021.8,000.0,030.8,024.2,011.4,0000.0,0001.83,0007.77,0000.88
2024-05-08 03:37:00,SystemResetWarning,0819.1,4.98,000.00,022.5,021.8,000.0,030.7,024.2,011.4,0000.0,0001.80,0007.62,0000.87
2024-05-08 03:38:00,SystemResetWarning,0819.1,5.00,000.00,022.5,021.8,000.0,030.7,024.2,011.5,0000.0,0001.85,0007.67,0000.87
2024-05-08 03:39:00,SystemResetWarning,0819.1,5.00,000.00,022.5,021.8,000.0,030.7,024.2,011.7,0000.0,0001.91,0007.51,0000.88
2024-05-08 03:40:00,SystemResetWarning,0819.1,5.01,000.00,022.5,021.8,000.0,030.7,024.1,011.8,0000.0,0001.94,0007.82,0000.87
2024-05-08 03:41:00,SystemResetWarning,0819.0,5.01,000.00,022.5,021.8,000.0,030.7,024.1,011.9,0000.0,0001.99,0008.44,0000.86
2024-05-08 03:42:00,SystemResetWarning,0819.0,5.00,000.00,022.5,021.8,000.0,030.7,024.1,011.9,0000.0,0001.98,0008.43,0000.87
2024-05-08 03:43:00,SystemResetWarning,0819.1,5.00,000.00,022.5,021.8,000.0,030.7,024.2,011.7,0000.0,0001.97,0007.43,0000.87
2024-05-08 03:44:00,SystemResetWarning,0819.1,5.01,000.00,022.5,021.8,000.0,030.7,024.2,011.7,0000.0,0001.96,0007.26,0000.86
2024-05-08 03:45:00,SystemResetWarning,0819.1,5.00,000.00,022.5,021.8,000.0,030.7,024.2,011.8,0000.0,0001.98,0007.57,0000.84
2024-05-08 03:46:00,SystemResetWarning,0819.1,5.00,000.00,022.5,021.8,000.0,030.7,024.2,011.8,0000.0,0002.00,0006.85,0000.85
2024-05-08 03:47:00,SystemResetWarning,0819.1,4.99,000.00,022.5,021.8,000.0,030.7,024.2,011.8,0000.0,0002.03,0006.90,0000.85
2024-05-08 03:48:00,SystemResetWarning,0819.1,4.99,000.00,022.5,021.8,000.0,030.7,024.2,011.9,0000.0,0002.03,0007.24,0000.85
2024-05-08 03:49:00,SystemResetWarning,0819.1,4.99,000.00,022.5,021.8,000.0,030.7,024.2,012.0,0000.0,0002.04,0007.58,0000.85
2024-05-08 03:50:00,SystemResetWarning,0819.1,5.00,000.00,022.5,021.8,000.0,030.7,024.2,011.9,0000.0,0002.04,0008.20,0000.85
2024-05-08 03:51:00,SystemResetWarning,0819.2,5.01,000.00,022.5,021.8,000.0,030.7,024.2,011.9,0000.0,0002.09,0008.21,0000.85
2024-05-08 03:52:00,SystemResetWarning,0819.3,5.01,000.00,022.5,021.8,000.0,030.7,024.1,011.8,0000.0,0001.99,0007.47,0000.83
2024-05-08 03:53:00,SystemResetWarning,0819.4,5.00,000.00,022.5,021.8,000.0,030.7,024.1,011.8,0000.0,0001.96,0007.40,0000.83
2024-05-08 03:54:00,SystemResetWarning,0819.3,4.98,000.00,022.5,021.8,000.0,030.7,024.2,011.8,0000.0,0001.95,0007.31,0000.82
2024-05-08 03:55:00,SystemResetWarning,0819.3,4.99,000.00,022.5,021.8,000.0,030.7,024.2,011.9,0000.0,0001.93,0007.17,0000.82
2024-05-08 03:56:00,SystemResetWarning,0819.3,5.01,000.00,022.5,021.8,000.0,030.7,024.2,011.9,0000.0,0001.85,0006.47,0000.83
2024-05-08 03:57:00,SystemResetWarning,0819.3,5.01,000.00,022.5,021.8,000.0,030.7,024.2,011.7,0000.0,0001.81,0006.05,0000.82
2024-05-08 03:58:00,SystemResetWarning,0819.3,5.00,000.00,022.5,021.8,000.0,030.7,024.2,011.7,0000.0,0001.75,0006.95,0000.81
2024-05-08 03:59:00,SystemResetWarning,0819.4,4.99,000.00,022.5,021.8,000.0,030.7,024.2,011.9,0000.0,0001.73,0007.10,0000.81
